Regional Weather Roundup
Issued by NWS

Home | Current Version | Previous Version | Graphics & Text | Print | Product List | Glossary On
Versions: 1 2 3 4 5 6 7 8 9 10 11 12 13 14 15 16 17 18 19 20 21 22 23 24 25 26 27 28 29 30 31 32 33 34 35 36 37 38 39 40 41 42 43 44 45 46 47 48 49 50
000
ASUS43 KDMX 261706
RWRIA

WEATHER ROUNDUP FOR IOWA
NATIONAL WEATHER SERVICE DES MOINES IA
1200 PM CDT WED JUL 26 2017

NOTE: "FAIR" INDICATES FEW OR NO CLOUDS BELOW 12,000 FEET WITH NO
SIGNIFICANT WEATHER AND/OR OBSTRUCTIONS TO VISIBILITY.

* - THESE STATIONS ARE NOT NWS STATIONS...THUS NOT UNDER NWS
QUALITY CONTROL.  THEY ALSO DO NOT REPORT WEATHER SUCH
AS PRECIPITATION OR FOG.

IAZ001>003-012>014-020>022-031>034-043>046-261800-
   NORTHWEST IOWA

CITY           SKY/WX    TMP DP  RH WIND       PRES   REMARKS
CARROLL *      LGT RAIN  73  72  94 NE7       30.00S
CHEROKEE *     CLOUDY    74  72  93 NE6       30.02S
DENISON *      CLOUDY    73  72  94 VRB7      30.00F
ORANGE CITY *  CLOUDY    79  70  73 E8        30.03R HX  81
SHELDON *      PTSUNNY   77  70  78 VRB7      30.02S
SIOUX CITY     CLOUDY    75  71  87 E13       30.00S
SPENCER        LGT RAIN  72  70  93 SE13      30.04S FOG
STORM LAKE *   DRIZZLE   72  70  94 NE12      30.04S
$$

IAZ055>058-069>071-079>083-090>094-261800-
   SOUTHWEST IOWA

CITY           SKY/WX    TMP DP  RH WIND       PRES   REMARKS
ATLANTIC *     CLOUDY    75  73  94 S9        29.99F
AUDUBON *      PTSUNNY   77  73  88 SE6       30.01R
CLARINDA *     CLOUDY    75  73  94 S3        30.01F
COUNCIL BLFS * CLOUDY    73  73 100 S6        29.99S
CRESTON *      CLOUDY    75  73  94 S6        30.04S
HARLAN  *      PTSUNNY   77  73  88 SW10      30.01F
LAMONI         CLOUDY    78  74  87 SW5       30.04S HX  81
RED OAK *      CLOUDY    75  75 100 S5        29.99S
SHENANDOAH *   CLOUDY    77  72  83 S8        29.99S
$$

IAZ047>049-059>061-072>074-084-261800-
   CENTRAL IOWA

CITY           SKY/WX    TMP DP  RH WIND       PRES   REMARKS
AMES           LGT RAIN  77  76  96 N13       30.00S
ANKENY *       CLOUDY    77  73  88 SE6       30.02R
BOONE *        CLOUDY    77  73  88 NE12      30.00F
CHARITON *     PTSUNNY   81  72  74 W7        30.02S HX  84
DES MOINES     CLOUDY    77  72  84 SE5       30.00R
GRINNELL*      CLOUDY    78  71  81 CALM      30.03F HX  80
KNOXVILLE *    CLOUDY    79  72  78 W6        30.01S HX  82
MARSHALLTOWN   LGT RAIN  78  73  84 W7        30.01S HX  81
NEWTON *       CLOUDY    77  73  88 SW5       30.03R
PELLA *        CLOUDY    81  71  71 W6        30.03S HX  84
PERRY *          N/A     77  73  88 E3        30.00S
$$

IAZ004>006-015-016-023>025-035-036-261800-
   NORTH CENTRAL IOWA

CITY           SKY/WX    TMP DP  RH WIND       PRES   REMARKS
ALGONA *       DRIZZLE   72  72 100 VRB3      30.03F
ESTHERVILLE    CLOUDY    72  72 100 SE9       30.03S
FORT DODGE *   CLOUDY    72  68  88 NE8       30.03F
MASON CITY     LGT RAIN  73  69  87 N3        30.05S
FOREST CITY *  LGT RAIN  73  72  94 SE7       30.04R
WEBSTER CITY * CLOUDY    73  72  94 NE8       30.01S
IOWA FALLS *   DRIZZLE   73  69  88 N5        30.04S
$$

IAZ007>011-017>019-026>030-037>042-050>054-066-261800-
   NORTHEAST IOWA

CITY           SKY/WX    TMP DP  RH WIND       PRES   REMARKS
CHARLES CITY * CLOUDY    73  73 100 NE7       30.04F
DECORAH *      LGT RAIN  73  72  94 VRB5      30.04R
DUBUQUE        CLOUDY    77  72  84 S5        30.05R
MONTICELLO *   CLOUDY    81  73  78 S5        30.02S HX  85
OELWEIN *      CLOUDY    75  73  94 CALM      30.05R
WATERLOO       CLOUDY    76  71  85 NW7       30.01R
$$

IAZ064-065-067-068-078-261800-
   EAST CENTRAL IOWA

CITY           SKY/WX    TMP DP  RH WIND       PRES   REMARKS
DAVENPORT      CLOUDY    80  73  79 S7        30.05S HX  84
IOWA CITY      CLOUDY    82  75  79 VRB3      30.03S HX  89
MT. PLEASANT * CLOUDY    85  74  69 S5        30.02S HX  91
MUSCATINE *    CLOUDY    82  73  74 SE6       30.02S HX  88
QUAD CITIES    CLOUDY    82  74  76 S5        30.02F HX  88
$$

IAZ062-063-075>077-085>089-095>099-261800-
   SOUTHEAST IOWA

CITY           SKY/WX    TMP DP  RH WIND       PRES   REMARKS
BURLINGTON     CLOUDY    82  76  81 S8        30.03S HX  89
FAIRFIELD *    CLOUDY    84  73  70 S6        30.01F HX  91
FORT MADISON * CLOUDY    84  77  79 S7        30.04S HX  94
KEOKUK *       CLOUDY    82  75  78 S6        30.03S HX  89
OSKALOOSA *      N/A     82  73  73 W8        30.02F HX  88
CENTERVILLE *    N/A     82  73  74 W3        30.04S HX  88
OTTUMWA        CLOUDY    84  73  69 W8        30.01S HX  90
WASHINGTON *   CLOUDY    84  75  74 S6        30.03S HX  92
$$

ABBREVIATIONS USED IN REMARKS
   TC - TEMPERATURES IN CELSIUS
  WCI - WIND CHILL INDEX
   HX - HEAT INDEX
  VSB - VISIBILITY
$$




USA.gov is the U.S. government's official web portal to all federal, state and local government web resources and services.